Location: Bayshore Village Mobile Home Park
(26.6945°N, 81.8642°W)
Time: 00:48:37
(UTC+00:00)

Hubble Space Telescope - Pass Details

Date: 01 November 2021
Orbit: 534 x 538 km, 28.5° (Epoch: 07 December)

Event Time Altitude Azimuth Distance (km) Brightness Sun altitude
Rises 00:29:54 0° 272° (W) 2,663 5.7 -23.8°
Reaches altitude 10° 00:32:11 10° 275° (W) 1,773 4.5 -24.3°
Enters shadow 00:35:32 54° 304° (NW) 647 1.3 -25.1°
